PROFILE

 METAR AND TAF INFORMATION
ADDS - METARS form results

(1431 UTC 22 January 2019)
http://aviationweather.gov/metar/data/
 
SPCL 221400Z 07005KT 8000 BKN010 BKN070 25/24 Q1016 RMK PP000
SPCL 221100Z 2212/2312 35005KT 9999 SCT015BKN080 TX32/2220Z TN23/2311Z TEMPO 2218/2222 4000 RADZ BKN020 BKN080 TEMPO 2309/2312 3000 BR BKN008 BKN080 

 AIRPORT MAP

 RUNWAY INFORMATION
Runway 02 Runway length 9186 ft Runway width 148 ft
Runway elevation 513 ft Runway displaced threshold 0 ft Runway heading 20
Runway 20 Runway length 9186 ft Runway width 148 ft
Runway elevation 513 ft Runway displaced threshold 0 ft Runway heading 200

 AIRPORT FREQUENCIES
Type APP Name PUCALLPA A Frequency 118.1 MHZ
Type TWR Name PUCALLPA T Frequency 126.9 MHZ

 AIRPORT NEAR NAVIGATION AIDS
Type VOR-DME Name Pucallpa Frequency 116700 KHZ